Regional Weather Roundup
Issued by NWS

Home | Current Version | Previous Version | Text Only | Print | Product List | Glossary On
Versions: 1 2 3 4 5 6 7 8 9 10 11 12 13 14 15 16 17 18 19 20 21 22 23 24 25 26 27 28 29 30 31 32 33 34 35 36 37 38 39 40 41 42 43 44 45 46 47 48 49 50
000
ASUS44 KOUN 260310
RWROK

WEATHER ROUNDUP FOR OKLAHOMA
NATIONAL WEATHER SERVICE NORMAN OK
1000 PM CDT SAT APR 25 2015

NOTE: "FAIR" INDICATES FEW OR NO CLOUDS BELOW 12,000 FEET WITH NO
      SIGNIFICANT WEATHER AND/OR OBSTRUCTIONS TO VISIBILITY.

OKZ001>007-009>012-014-015-017-260400-
NORTHWEST OKLAHOMA AND THE PANHANDLE

CITY           SKY/WX    TMP DP  RH WIND       PRES   REMARKS
GAGE           CLEAR     64  44  48 E7        29.66R
GUYMON         CLEAR     68  35  29 E14       29.65S
ENID/WOODRING  CLEAR     64  55  72 NE9       29.67R
$$

OKZ016-021>023-033>039-044-045-260400-
SOUTHWEST OKLAHOMA

CITY           SKY/WX    TMP DP  RH WIND       PRES   REMARKS
LAWTON/REGL    CLEAR     65  55  70 SE7       29.64R
FREDERICK      CLEAR     68  54  60 S5        29.61R
CLINTON        PTCLDY    67  47  48 SE9       29.66S
HOBART         CLEAR     66  48  52 SE9       29.64R
$$

OKZ018>020-024>031-260400-
CENTRAL OKLAHOMA

CITY           SKY/WX    TMP DP  RH WIND       PRES   REMARKS
OKLAHOMA CITY  CLEAR     67  52  58 SE7       29.66R
OKC/WILEY POST CLEAR     68  52  56 CALM      29.66R
STILLWATER     CLEAR     67  52  58 NE12      29.67R
GUTHRIE        MOCLDY    71  50  47 E7        29.66R
$$

OKZ008-013-054>072-260400-
NORTHEAST OKLAHOMA

CITY           SKY/WX    TMP DP  RH WIND       PRES   REMARKS
TULSA          CLEAR     69  55  60 N8        29.66R
TULSA/JONES    CLEAR     69  55  60 NE10      29.67R
PONCA CITY     CLEAR     66  54  65 NE13G24   29.69R
BARTLESVILLE   CLEAR     62  54  74 N9        29.71R
MUSKOGEE       CLEAR     69  55  60 N10       29.67R
$$

OKZ032-040>043-046>053-073>077-260400-
SOUTH CENTRAL/SOUTHEAST OKLAHOMA

CITY           SKY/WX    TMP DP  RH WIND       PRES   REMARKS
ARDMORE/DWNTWN CLEAR     63  57  82 CALM      29.67S
MCALESTER      CLEAR     62  56  80 SW5       29.67R
$$




USA.gov is the U.S. government's official web portal to all federal, state and local government web resources and services.